Weather in Tomsk

Russia / Tomsk District     56°29′04″N   84°56′51″E
temp.,
°C
wind,
m/s
gust,
m/s
humid.,
%
clouds,
%
prec.,
mm/h
press.,
hPa
HPBL,
m
10 august, wed
wed1001:00+14ne258532 0.0 101297
04:00+13ne229116 0.0 101140
07:00+14ne148728 0.0 1011115
10:00+21ne236147 0.0 1011648
13:00+25nne334831 0.0 10111552
16:00+26ne34426 0.0 10111917
19:00+24ene34545 0.0 1011881
22:00+18ne11775 0.0 101111
11 august, thu
thu1101:00+16ne22855 0.0 101211
04:00+16ne22885 0.0 101115
07:00+17ne24850 0.0 101293
10:00+23nne23603 0.0 1012607
13:00+26nne34485 0.0 10121833
16:00+25nne555832 0.4 10121052
19:00+24nne46591 0.6 10111167
22:00+17nne411690 0.0 1013416
12 august, fri
fri1201:00+14nne310690 0.0 1013263
04:00+11nne310720 0.0 1014199
07:00+11ne29732 0.0 1015224
10:00+18ne47468 0.0 1015779
13:00+21nne4536100 0.0 10141380
16:00+21nne44345 0.0 10141477
19:00+20nne34445 0.0 1013917
22:00+12ene22715 0.0 101429
13 august, sat
sat1301:00+10e22760 0.0 101419
04:00+9e22770 0.0 101213
07:00+10ese12741 0.0 101248
10:00+17se22470 0.0 1011571
13:00+22sse23340 0.0 10091269
16:00+24ssw242991 0.0 10071746
19:00+21sse1154100 0.1 100519
22:00+15sw2788100 0.3 1005188
14 august, sun
sun1401:00+13ssw239612 0.4 100446
04:00+13ssw3996100 0.2 1002256
07:00+13ssw31097100 1.7 1001448
10:00+14ssw51097100 4.5 1000956
13:00+16wsw5109135 6.9 999862
16:00+16wsw6109074 3.9 999977
19:00+13wsw6119477 6.4 1001884
22:00+11wsw61195100 0.6 1002843